Wind_Speed
13 10 9 8 8 7 7 6 6 6 6 6 6 7 8 9 10 8 11 8 4 13 6 5 6 8 8 8 7 6 10 9 5 5 4 5 9 7 1 5 6 5 1 7 20
14 11 9 8 8 7 7 6 6 5 5 5 6 6 7 7 9 16 12 9 10 4 13 10 10 10 12 13 7 10 11 8 3 2 6 4 6 13 8 7 9 9 7 16 22
15 12 9 8 7 7 7 5 5 4 5 5 5 6 5 5 8 4 5 2 8 8 9 11 6 10 16 12 14 14 14 4 6 5 6 6 5 6 11 11 10 11 12 17 20
17 13 10 8 6 5 5 4 4 4 5 5 4 4 3 3 1 4 4 9 10 8 9 12 10 13 15 16 14 15 16 7 4 3 8 6 2 6 11 9 4 4 18 20 19
18 14 11 9 6 4 4 4 5 4 4 4 4 4 2 6 3 4 8 3 16 9 9 10 11 12 14 14 11 17 18 9 10 9 10 10 8 7 10 8 4 5 17 19 19
18 14 11 9 6 3 4 6 6 5 4 4 4 5 5 7 3 4 5 12 10 12 8 7 5 5 8 10 15 11 18 13 11 13 11 12 8 5 7 10 8 12 16 17 19
17 14 12 9 5 2 4 6 6 4 3 4 6 3 6 5 3 3 7 3 10 6 6 5 4 8 3 8 3 5 11 14 17 17 16 10 14 10 9 8 10 12 14 16 18
16 13 11 8 2 3 7 6 5 3 3 4 6 3 4 2 2 5 6 5 7 3 0 4 5 3 8 2 5 11 10 14 17 16 13 10 16 16 9 9 11 10 11 14 18
15 11 9 5 3 7 8 7 5 4 5 6 2 4 3 2 4 7 9 4 8 6 4 7 7 3 6 11 9 8 13 12 15 8 14 12 18 17 6 9 14 13 12 14 16
14 8 6 4 8 9 8 7 7 6 4 2 4 5 5 2 4 8 7 11 6 11 8 7 6 8 8 9 11 9 9 8 11 7 10 18 17 19 10 9 11 15 15 16 17
12 5 3 6 9 9 11 4 5 5 6 6 3 4 0 4 6 6 11 10 10 9 7 7 9 9 5 4 9 8 10 12 9 5 11 14 15 16 16 13 14 15 16 18 20
11 2 4 7 8 8 2 3 5 4 4 3 4 5 7 1 4 7 11 9 8 10 5 8 10 2 3 4 7 9 12 13 10 7 7 14 19 20 18 17 17 19 19 19 20
9 2 7 8 8 4 4 1 3 5 5 4 2 4 3 8 3 7 10 10 9 9 9 9 6 4 5 6 9 11 13 13 12 12 13 17 19 20 18 22 17 14 16 17 20
8 5 10 8 6 5 4 4 10 5 5 4 3 5 4 3 5 6 7 9 6 5 4 6 2 8 8 9 8 12 7 9 12 11 10 2 13 13 13 16 18 18 15 16 18
5 7 12 13 2 3 2 10 2 4 5 4 7 3 10 3 1 8 12 6 3 2 6 6 2 3 6 5 4 10 3 8 11 13 15 16 11 14 16 13 16 19 18 12 13
3 9 12 6 2 1 9 2 4 6 3 4 5 6 4 16 7 4 4 10 2 5 5 9 5 6 13 10 9 14 13 16 16 14 15 18 18 17 13 15 13 16 15 15 11
14 13 7 2 3 10 5 5 5 5 0 5 5 5 10 10 8 13 15 16 8 4 2 3 3 5 15 12 7 7 12 12 14 13 14 14 15 10 10 11 11 12 12 10 5
15 12 8 9 9 4 5 5 6 3 5 4 4 6 6 6 7 9 5 9 17 11 3 4 8 11 9 10 9 14 10 10 20 16 16 10 8 6 2 7 12 20 19 19 19
7 4 5 16 9 2 6 4 5 3 3 4 1 3 6 6 4 4 12 7 12 14 8 6 3 8 6 13 7 7 8 13 12 18 18 18 24 18 6 12 15 17 20 21 22
1 2 10 17 6 5 1 5 3 3 3 2 1 4 2 6 2 4 6 9 5 10 7 5 7 5 10 9 6 10 10 8 9 16 22 15 17 10 13 12 14 17 20 22 23
4 3 15 11 4 2 2 5 8 7 2 5 4 4 7 3 7 4 6 7 8 7 6 5 2 7 8 8 12 9 3 6 7 9 14 17 15 9 11 16 19 21 24 25 24
2 3 18 9 2 4 5 7 3 6 8 5 7 8 7 4 7 5 6 6 7 6 4 7 3 8 8 5 7 8 9 10 5 9 9 10 15 9 8 18 23 26 25 25 24
2 3 13 4 4 7 12 15 11 4 7 3 4 7 4 4 5 7 6 6 7 6 6 6 3 6 6 7 7 7 13 12 11 12 16 14 12 2 17 26 27 26 26 24 23
2 2 6 8 8 15 14 7 7 7 12 10 7 5 5 8 5 7 9 5 5 6 5 5 1 4 6 8 9 13 15 14 12 11 17 22 28 28 31 31 30 26 26 27 26
4 4 4 4 7 8 8 7 10 5 5 5 5 6 3 5 9 9 6 10 5 2 1 3 2 6 7 9 9 11 13 15 16 16 17 24 26 27 26 27 23 32 27 28 27
3 4 8 8 7 10 4 8 11 9 3 5 6 5 5 9 7 8 3 3 4 3 2 2 3 7 12 4 12 11 4 6 10 12 17 24 30 25 27 26 23 24 26 29 28
9 7 4 4 5 6 6 4 7 5 6 6 4 7 9 9 5 4 2 2 2 3 4 4 7 7 5 14 12 5 12 14 16 17 22 26 33 34 34 25 20 24 25 30 30
Wind_Direction
339 327 307 289 281 280 278 269 259 246 239 245 254 260 267 279 289 279 258 250 214 218 192 201 192 197 212 230 235 262 253 226 182 245 62 131 198 174 109 183 192 170 15 100 143
346 335 322 298 273 266 270 265 254 242 236 241 248 257 268 292 280 263 254 245 235 240 209 212 206 199 216 233 218 238 241 224 57 21 349 36 232 171 194 199 194 161 122 140 152
349 340 328 314 281 258 260 256 244 232 231 235 245 250 271 299 267 126 169 194 219 201 217 216 243 225 231 225 217 228 251 201 202 288 314 358 165 209 213 217 232 205 163 160 165
349 344 332 318 297 262 249 244 215 214 220 223 228 229 237 260 292 116 282 277 199 177 186 191 215 214 227 214 222 244 238 280 271 263 290 314 340 219 230 250 62 226 162 169 174
349 345 336 320 300 264 233 211 195 200 211 204 195 192 197 226 255 350 320 189 169 174 188 194 214 224 227 225 205 236 249 245 250 267 279 296 277 306 266 242 228 189 167 181 177
350 344 339 326 302 259 209 182 181 187 196 187 178 169 243 245 70 24 121 135 172 185 188 214 253 241 261 233 225 244 248 252 254 259 260 276 275 294 245 175 192 169 178 187 189
351 344 341 331 302 219 179 167 170 173 175 177 180 178 245 284 147 77 143 134 163 192 195 197 243 217 177 202 214 218 239 232 246 249 255 273 261 242 250 189 197 199 187 191 199
351 346 345 337 308 153 149 154 157 162 168 168 165 227 266 183 198 203 179 148 170 160 187 195 192 256 252 76 197 227 238 248 230 232 237 232 252 223 187 208 222 200 207 203 199
348 349 352 3 115 132 140 145 147 148 144 141 169 256 140 179 213 194 181 169 152 161 120 154 209 257 191 222 214 198 249 214 255 194 254 218 247 250 150 224 238 236 217 214 213
345 352 10 84 128 138 137 128 120 103 127 212 247 236 211 74 118 147 164 155 143 149 149 188 208 223 221 225 239 254 217 224 255 176 228 244 243 254 204 228 227 233 236 227 219
342 349 64 134 146 143 121 127 201 180 214 282 353 309 199 81 147 164 163 172 158 203 202 201 234 221 236 269 315 290 270 270 269 277 270 264 258 251 250 245 244 241 234 235 229
334 330 150 155 159 157 145 270 41 356 298 215 266 263 252 297 147 138 183 207 204 214 183 203 231 253 260 254 256 258 264 261 273 274 268 261 258 253 245 247 249 247 245 236 237
327 257 178 159 173 197 230 360 325 308 252 122 93 39 82 196 76 79 197 217 223 223 217 271 83 96 221 215 248 247 261 274 271 285 270 262 264 256 251 245 247 247 252 249 237
318 222 186 169 162 176 195 290 302 216 239 88 115 68 94 184 87 39 11 287 220 265 246 268 315 245 246 253 257 270 278 260 265 263 269 121 278 281 242 237 231 238 228 228 234
301 199 181 164 46 222 6 318 228 208 201 61 57 82 48 77 126 47 24 250 301 178 247 98 200 228 256 298 276 286 314 277 279 271 274 255 256 265 256 231 252 238 239 239 238
169 164 160 182 238 259 323 296 201 230 135 82 58 14 121 50 45 1 46 35 6 261 230 285 307 308 325 305 263 295 282 273 266 254 254 253 251 267 260 226 243 249 229 247 246
118 121 125 104 319 305 301 215 227 275 126 56 10 3 72 48 63 49 68 55 30 282 183 295 60 82 9 315 268 264 271 274 263 243 251 256 258 280 289 287 269 282 290 290 281
114 97 84 29 328 292 225 222 244 76 41 23 6 55 76 7 58 46 78 64 30 4 337 319 174 13 3 10 316 290 292 282 295 287 288 297 250 250 25 287 5 17 2 355 346
115 92 49 345 342 262 245 229 35 35 3 348 234 197 105 55 84 96 61 56 32 17 14 340 171 15 14 337 333 352 284 322 285 274 271 268 267 257 260 48 30 16 8 360 351
238 146 28 343 353 254 179 78 108 27 359 282 74 343 123 30 120 81 78 34 33 23 340 44 292 49 339 305 163 342 328 299 234 271 270 267 269 273 63 39 21 9 1 353 349
265 228 5 355 343 41 108 79 105 50 67 7 69 103 77 76 50 67 66 75 25 28 38 1 301 350 321 31 329 329 317 314 303 279 286 282 272 72 67 30 9 356 348 343 342
260 229 360 358 76 55 92 123 83 75 71 82 59 67 68 54 69 91 91 67 20 350 34 26 318 307 318 17 48 46 47 3 313 297 303 294 270 161 71 9 355 337 331 329 331
80 40 12 309 136 100 108 96 69 92 41 79 81 60 75 92 110 93 106 74 33 30 25 354 108 298 161 165 175 7 330 317 299 283 268 279 269 112 332 339 333 329 337 330 332
103 130 59 50 76 122 122 104 113 68 65 68 90 107 118 85 84 129 119 84 74 66 14 289 88 349 330 329 315 304 308 311 296 279 286 269 295 299 315 321 320 325 323 325 328
24 67 339 99 70 98 90 113 119 112 76 28 91 77 99 125 111 110 102 130 124 102 88 338 20 316 320 294 295 295 293 297 290 292 284 301 298 303 311 308 316 313 319 316 312
96 124 97 84 86 92 90 83 105 98 13 80 103 93 79 93 37 121 121 88 63 89 59 26 31 320 296 355 310 295 305 313 305 309 312 306 298 301 315 311 306 300 300 307 307
82 61 97 108 94 91 48 98 108 125 65 55 101 128 104 66 27 38 36 80 64 354 34 355 346 332 330 333 304 145 17 358 337 329 319 302 306 310 301 308 316 305 306 300 296
Height
791 789 787 786 785 785 785 784 784 784 785 785 785 785 785 784 784 783 778 775 774 774 774 775 775 774 773 767 766 762 773 771 769 769 764 753 758 753 753 758 760 762 765 769 779
789 787 785 784 783 783 783 783 783 783 783 783 784 784 783 783 783 778 774 772 772 772 774 773 769 770 767 766 764 768 770 761 756 759 760 753 755 755 761 761 760 764 770 774 779
788 786 783 781 780 780 781 780 781 781 782 782 782 783 782 783 780 764 769 769 770 772 773 772 771 767 767 761 762 763 771 750 757 756 756 756 755 751 758 760 752 757 766 772 777
786 784 782 780 778 778 778 779 779 780 781 781 782 782 782 784 775 766 767 767 769 772 773 771 769 770 769 769 758 773 758 755 754 756 757 757 753 755 752 745 745 748 757 766 771
784 782 780 778 776 776 776 777 778 779 779 780 781 782 782 776 766 768 766 764 769 772 770 767 768 764 769 760 760 769 756 755 755 755 754 752 756 755 750 742 745 747 755 762 765
783 780 778 776 775 774 775 776 777 778 778 779 780 780 780 775 768 768 767 768 769 771 769 768 764 762 762 764 766 754 756 757 754 754 752 759 750 754 739 739 747 749 754 758 762
781 779 776 774 773 773 774 775 776 777 777 778 779 780 777 766 768 769 770 770 770 770 769 769 769 768 761 766 760 761 771 761 756 753 755 751 761 757 737 741 745 748 749 753 759
779 777 775 773 772 773 774 775 776 777 777 777 778 780 768 767 767 768 769 770 771 772 771 771 771 765 763 762 765 769 767 774 750 749 751 760 769 741 735 742 743 744 747 750 754
778 776 774 773 772 773 774 775 776 777 777 777 779 777 763 765 766 765 768 767 770 772 772 772 769 766 768 770 772 770 777 770 763 745 752 759 762 738 734 741 744 740 741 746 748
777 775 773 773 773 774 775 776 777 778 778 779 779 778 762 761 762 764 767 768 767 768 770 769 766 768 765 768 780 768 772 766 771 754 757 755 755 738 734 741 742 738 737 737 742
775 773 773 773 773 774 776 779 779 778 776 761 760 762 759 761 762 762 765 766 765 764 769 767 772 773 762 763 764 770 775 774 761 754 765 762 755 746 737 736 739 735 734 733 732
773 772 772 772 773 774 775 770 771 774 767 760 761 762 761 762 760 762 765 765 765 768 766 773 773 760 764 768 773 772 775 771 760 759 767 760 756 743 738 736 733 731 728 728 729
770 770 771 771 773 775 774 772 772 772 765 758 758 756 758 761 760 760 762 759 763 766 766 770 764 764 769 770 776 770 774 770 771 760 758 760 761 750 736 729 726 726 724 720 722
768 767 768 770 776 772 770 771 770 770 759 762 757 760 758 756 769 766 768 764 760 765 761 764 754 767 768 770 765 775 752 762 766 771 774 751 772 739 727 728 727 723 719 719 718
765 765 767 769 770 768 771 768 767 768 777 761 761 760 758 761 767 770 771 761 765 764 765 763 765 767 769 763 762 765 757 760 762 766 764 759 767 743 727 734 731 718 712 710 710
762 764 766 770 770 769 768 767 767 771 787 771 766 770 766 772 778 773 774 771 775 769 764 763 760 765 765 758 758 754 760 755 752 757 773 753 756 744 732 726 722 709 705 704 704
763 766 768 769 768 767 766 764 768 772 770 786 785 778 779 786 791 789 790 799 799 787 780 770 767 769 772 769 749 756 766 774 767 758 759 727 737 733 719 716 715 713 705 701 700
767 767 769 771 768 765 764 762 782 790 789 789 789 783 792 792 801 800 798 802 811 804 790 791 788 790 785 791 789 777 770 776 787 770 748 723 752 737 715 713 716 726 728 726 724
768 769 771 769 766 765 760 771 789 798 801 799 789 785 794 795 794 804 818 820 828 822 811 808 788 791 792 787 782 772 777 779 780 763 760 743 726 713 714 732 740 744 743 742 736
770 769 772 769 766 765 763 800 802 806 804 797 793 796 795 804 798 802 820 835 833 832 824 828 819 799 797 784 781 796 787 787 765 784 775 746 738 731 747 753 755 756 756 753 746
770 763 774 769 769 764 777 799 806 808 806 804 805 807 811 810 808 815 830 841 839 835 830 830 832 803 799 805 816 800 789 802 793 780 777 769 748 741 759 760 764 764 762 756 751
769 766 777 771 774 782 790 801 812 811 809 812 813 814 818 817 819 824 832 838 843 838 836 838 834 823 820 815 813 810 824 824 814 790 789 795 769 745 748 758 770 771 767 761 756
770 775 780 774 781 797 805 812 814 816 817 817 821 821 821 825 830 832 837 844 844 842 845 842 834 819 807 816 818 824 827 826 828 826 817 807 768 738 745 763 775 773 769 763 758
774 777 786 787 788 796 805 812 820 824 825 823 825 823 824 827 826 836 842 848 848 846 855 848 841 840 832 835 836 838 834 829 830 828 810 793 783 774 771 777 773 777 774 770 768
780 802 807 798 804 806 807 813 817 826 828 828 829 829 827 830 832 839 842 847 851 855 849 846 840 844 838 837 836 837 836 832 828 823 822 805 805 796 792 787 787 776 775 773 766
788 797 807 812 811 809 817 821 824 831 828 833 831 836 832 834 837 842 843 844 848 848 849 850 840 843 833 831 831 832 834 832 827 824 822 815 804 792 784 784 786 782 776 768 761
804 805 801 819 816 813 825 828 832 832 839 839 838 835 838 848 850 849 851 852 853 852 849 849 847 842 832 832 821 836 834 839 841 838 837 825 804 796 784 782 790 788 779 773 761